Simultaneous Nadir Overpasses (SNOs) Predictions

Prediction of SNOs over PacNW region [( 10.00, 139.50) to ( 22.70, 165.60)] between AQUA and NPP Satellites:

Table of predicted SNOs over PacNW region for the next 30.0 days since TLE Epoch: 3/27/2021
Index Date (AQUA) Time (AQUA) AQUA Lat,Lon Date (NPP) Time (NPP) NPP Lat,Lon Distance(km) Time Diff (sec)
1 04/01/2021 15:09:52 22.59, 159.83 04/01/2021 15:10:29 23.13, 157.27 269.60 37
2 04/09/2021 15:59:16 22.61, 147.48 04/09/2021 16:01:08 23.27, 144.63 300.63 112
3 04/17/2021 15:09:47 22.61, 159.85 04/17/2021 15:10:22 23.17, 157.31 267.07 35
